Other Public Products
Issued by NWS Grand Forks, ND

Home | Current Version | Previous Version | Text Only | Print | Product List | Glossary On
Versions: 1 2 3 4 5 6 7 8 9 10 11 12 13 14 15 16 17 18 19 20 21 22 23 24 25 26 27 28 29 30 31 32 33 34 35 36 37 38 39 40 41 42 43 44 45 46 47 48 49 50
000
FPUS83 KFGF 311331
OPUFGF
PRAIRIE TO PINES WEATHER ROUNDUP
NATIONAL WEATHER SERVICE EASTERN NORTH DAKOTA/GRAND FORKS ND
800 AM CDT MON AUG 31 2015

 **SATELLITE DATA USED TO AUGMENT SKY COVER AT AUTOMATED STATIONS**
 *****  WEATHER ACROSS EASTERN NORTH DAKOTA  *****

CITY           SKY/WX    TMP DP  RH WIND       PRES   REMARKS
GRAND FORKS    PTSUNNY   64  61  90 S7        29.66R
GRAND FORKS AF PTSUNNY   66  63  88 S9        29.65S
GRAND CITY NWS   N/A     63 N/A N/A S5          N/A
BUXTON         NOT AVBL
DEVILS LAKE    CLOUDY    66  57  72 NW9       29.70R
FARGO          MOSUNNY   67  60  78 S14       29.69R
WAHPETON ARPT  SUNNY     66  57  72 S10       29.73R
$$

 *****  WEATHER ACROSS CENTRAL AND WESTERN NORTH DAKOTA  *****

CITY           SKY/WX    TMP DP  RH WIND       PRES   REMARKS
JAMESTOWN      CLOUDY    66  63  90 S8        29.67F
BISMARCK       CLOUDY    68  56  65 NW9G18    29.77R
MINOT          CLOUDY    61  54  77 NW10      29.77R
MINOT AFB      CLOUDY    62  59  88 NW13      29.75R
GARRISON         N/A     63  57  81 NW16      29.80R
WILLISTON        N/A    N/A N/A N/A MISG      29.84R
DICKINSON      MOCLDY    57  52  83 NW5       29.87R
HETTINGER      MOCLDY    60  54  80 NW21G31   29.88R
$$

 *****  OTHER OBSERVATIONS NORTHEAST NORTH DAKOTA  *****

CITY           SKY/WX    TMP DP  RH WIND       PRES   REMARKS
WALHALLA       FAIR      66  66 100 MISG      29.65S FOG
LANGDON        FAIR      64  63  94 W10       29.73R FOG
CAVALIER       FAIR      70  66  88 NE7       29.64S FOG
GRAFTON        PTSUNNY   66  66 100 S6        29.66F FOG
CANDO          PTSUNNY   64  59  82 NW5       29.72R
FORT TOTTEN    NOT AVBL
ROLLA          PTSUNNY   63  61  94 W7        29.76R
RUGBY          PTSUNNY   63  61  94 NW16      29.76R
 ***** THE ABOVE OBSERVATIONS ARE NON NWS ARE NOT QUALITY
        CONTROLLED AND MAY MIS-REPORT RAIN FOR SNOW...
$$

 *****  OTHER OBSERVATIONS SOUTHEAST NORTH DAKOTA *****

CITY           SKY/WX    TMP DP  RH WIND       PRES   REMARKS
COOPERSTOWN    NOT AVBL
VALLEY CITY    FAIR      66  66 100 SW14      29.69S
OAKES            N/A     70  68  94 S16G25    29.71S
GWINNER        FAIR      72  61  68 S18G24    29.70S
SHEYENNE NWR     N/A     70  60  71 S6        29.95S
BUFFALO        NOT AVBL
WYNDMERE         N/A     66  63  88 S5          N/A
 ***** THE ABOVE OBSERVATIONS ARE NON NWS ARE NOT QUALITY
       CONTROLLED AND MAY MIS-REPORT RAIN FOR SNOW...
$$

  *****  WEATHER ACROSS NORTHERN MINNESOTA  *****

CITY           SKY/WX    TMP DP  RH WIND       PRES   REMARKS
FLAG ISLAND    CLOUDY    68  63  83 S10       29.66S
WARROAD        MOSUNNY   66  61  82 S6        29.68R
ROSEAU         PTSUNNY   68  61  77 S12       29.67R
HALLOCK        CLOUDY    66  63  88 S7        29.66F
THF RVR FALLS  MOSUNNY  N/A N/A N/A S12       29.70R
HALSTAD        NOT AVBL
FOSSTON        MOSUNNY   66  57  72 S13       29.72S
BAUDETTE       MOSUNNY   65  59  81 SE8       29.70S
WASKISH        MOSUNNY   68  61  77 S8        29.73S
CROOKSTON      MOSUNNY   66  61  82 S14       29.70R
$$
  *****  WEATHER ACROSS CENTRAL AND WEST MINNESOTA  *****

CITY           SKY/WX    TMP DP  RH WIND       PRES   REMARKS
BEMIDJI        SUNNY     67  58  71 S9        29.75S
PARK RAPIDS    SUNNY     66  59  78 S15       29.79R
WADENA         SUNNY     64  61  88 S10G18    29.79S
DETROIT LAKES  SUNNY     70  57  64 S8        29.77R
MOORHEAD       SUNNY     66  61  82 S15       29.71S
FERGUS FALLS   SUNNY     68  59  73 S15       29.74F
ELBOW LAKE     FAIR      66  61  83 S21G28    29.76F
MORRIS MN      SUNNY     64  63  94 S15       29.79S FOG
STAPLES        SUNNY     64  63  94 S14       29.82S
WHEATON        SUNNY     64  59  82 S13       29.75R
$$
  *****  WEATHER ELSEWHERE ACROSS MINNESOTA  *****

CITY           SKY/WX    TMP DP  RH WIND       PRES   REMARKS
DULUTH         MOSUNNY   65  62  90 SW14      29.89S
INTRNTL FALLS  MOSUNNY   66  61  84 VRB6      29.74S
ELY            SUNNY     66  57  72 SW8       29.85S
CLOQUET        CLOUDY    64  61  88 S8        29.89S
BRAINERD       MOSUNNY   65  63  93 S10       29.85S FOG
HIBBING        MOSUNNY   61  60  97 SE5       29.86S
ALEXANDRIA     SUNNY     66  62  87 S18G25    29.84S
SAINT CLOUD    MOSUNNY   66  65  96 S9        29.88F FOG
MINNEAPOLIS    MOSUNNY   69  66  90 S8        29.93F
$$

  *****  WEATHER ACROSS SOUTH DAKOTA  *****

CITY           SKY/WX    TMP DP  RH WIND       PRES   REMARKS
SIOUX FALLS    MOSUNNY   66  64  93 S12       29.89S
BROOKINGS      CLOUDY    64  61  88 S13       29.89R
WATERTOWN      SUNNY     66  62  87 S17G25    29.79F
HURON          SUNNY     67  63  87 S14G24    29.76S
SISSETON         N/A     73  60  63 SW23G35   29.70R
ABERDEEN       SUNNY     68  62  81 S15G21    29.71R
MITCHELL       SUNNY     67  64  90 S12       29.82R
PIERRE         CLOUDY    72  52  49 S3        29.71R
MOBRIDGE       MOCLDY    69  63  81 NW13      29.70R HAZE
RAPID CITY     CLOUDY    68  53  58 N23G32    29.91R
$$

  *****  SOME WEATHER IN NEARBY STATES *****

CITY           SKY/WX    TMP DP  RH WIND       PRES   REMARKS
GLASGOW MT     CLEAR     52  43  71 W13       29.85R
GREAT FALLS MT PTCLDY    53  34  48 SW22      29.90F
CHEYENNE WY    CLOUDY    66  47  50 NW9       30.13R
SCOTTSBLUFF NE CLOUDY    74  51  44 NW16G24   29.95F
OMAHA NE       MOSUNNY   69  67  93 S6        29.97R FOG
DES MOINES IA  SUNNY     69  65  86 SE9       29.98S FOG
DAVENPORT IA   SUNNY     67  65  93 SE5       30.06R FOG
CHICAGO IL     SUNNY     64  64 100 CALM      30.08R FOG
EAU CLAIRE WI  CLOUDY    65  64  97 S5        29.99S FOG
LA CROSSE WI   CLOUDY    66  64  93 S7        30.01S FOG
$$

  *****  SOME NATIONAL WEATHER *****

CITY           SKY/WX    TMP DP  RH WIND       PRES   REMARKS
LA GUARDIA NY  PTSUNNY   79  66  64 W6        30.03S
RALEIGH NC     LGT RAIN  68  67  96 E7        30.13S FOG
ATLANTA GA     CLOUDY    69  64  84 E8        30.12S
NEW ORLEANS LA PTSUNNY   80  72  76 CALM      30.06R
OKLAHOMA CITY  MOSUNNY   68  64  87 S8        29.99R
ALBUQUERQUE NM PTCLDY    68  50  52 W3        30.18R
SALT LAKE CITY PTCLDY    63  40  42 W5        30.06R
LOS ANGELES CA MOCLDY    69  64  84 E5        29.87R
BOISE ID       CLEAR     53  42  66 CALM      30.07S
SEATTLE WA     CLOUDY    62  50  64 S14       29.96F
$$

*** WEATHER ACROSS MANITOBA...SASKATCHEWAN AND ONTARIO ***
                ***ONTARIO***

CITY           SKY/WX    TMP DP  RH WIND       PRES   REMARKS
GERALDTON      FOG       61  59  94 SE7       29.89F VSB 3/4
THUNDER BAY    CLOUDY    59  57  94 NE5G25    29.87S FOG
SIOUX LOOKOUT  CLOUDY    68  63  83 S8        29.73S
TORONTO        SUNNY     70  66  88 W9        30.03S
BIG TROUT LK   CLOUDY    54  52  94 SE17G29   29.70F
PICKLE LAKE    PTSUNNY   66  63  88 S12G21    29.72F
DRYDEN         SUNNY     68  61  77 S15G23    29.71F
KENORA         CLOUDY    68  61  77 S12       29.67F
$$
                *** MANITOBA***

CITY           SKY/WX    TMP DP  RH WIND       PRES   REMARKS
BRANDON        CLOUDY    61  61 100 W8        29.71R
DAUPHIN        CLOUDY    64  59  82 SW15G22   29.65R
ISLAND LAKE    CLOUDY    63  61  94 SE3       29.52R
PILOT MOUND      N/A     63  59  88 NW9         N/A
THE PAS        MOCLDY    57  55  94 S6        29.50S
THOMPSON       DRIZZLE   54  54 100 VRB2      29.55S FOG
WINNIPEG       TSTM      66  64  94 S5        29.65R
LYNN LAKE      CLOUDY    57  57 100 MISG      29.50R FOG
CHURCHILL      CLOUDY    46  46 100 SE21G26   29.72
$$
                ***SASKATCHEWAN***

CITY           SKY/WX    TMP DP  RH WIND       PRES   REMARKS
ESTEVAN        PTCLDY    55  54  94 SW8       29.75R
KINDERSLEY     PTCLDY    48  37  66 SW12      29.62R
LLOYDMINSTER   PTCLDY    48  43  81 SW9       29.54R
PRINCE ALBERT  MOCLDY    54  46  76 S6        29.50R
REGINA         MOCLDY    54  52  94 SW14      29.69R
YORKTON        RAIN      57  55  94 S10G18    29.66R FOG


USA.gov is the U.S. government's official web portal to all federal, state and local government web resources and services.